Year,Month,Day,Hour,Minute,Value (Times are PST for temperature in C)
2017,05,27,00,00,14.80
2017,05,27,00,01,14.80
2017,05,27,00,02,14.80
2017,05,27,00,03,14.80
2017,05,27,00,04,14.80
2017,05,27,00,05,14.80
2017,05,27,00,06,14.80
2017,05,27,00,07,14.70
2017,05,27,00,08,14.70
2017,05,27,00,09,14.70
2017,05,27,00,10,14.70
2017,05,27,00,11,14.70
2017,05,27,00,12,14.70
2017,05,27,00,13,14.70
2017,05,27,00,14,14.70
2017,05,27,00,15,14.70
2017,05,27,00,16,14.70
2017,05,27,00,17,14.70
2017,05,27,00,18,14.70
2017,05,27,00,19,14.70
2017,05,27,00,20,14.70
2017,05,27,00,21,14.70
2017,05,27,00,22,14.60
2017,05,27,00,23,14.60
2017,05,27,00,24,14.60
2017,05,27,00,25,14.60
2017,05,27,00,26,14.60
2017,05,27,00,27,14.60
2017,05,27,00,28,14.60
2017,05,27,00,29,14.60
2017,05,27,00,30,14.60
2017,05,27,00,31,14.60
2017,05,27,00,32,14.60
2017,05,27,00,33,14.60
2017,05,27,00,34,14.60
2017,05,27,00,35,14.60
2017,05,27,00,36,14.60
2017,05,27,00,37,14.60
2017,05,27,00,38,14.60
2017,05,27,00,39,14.60
2017,05,27,00,40,14.60
2017,05,27,00,41,14.60
2017,05,27,00,42,14.60
2017,05,27,00,43,14.60
2017,05,27,00,44,14.50
2017,05,27,00,45,14.50
2017,05,27,00,46,14.50
2017,05,27,00,47,14.50
2017,05,27,00,48,14.40
2017,05,27,00,49,14.40
2017,05,27,00,50,14.40
2017,05,27,00,51,14.40
2017,05,27,00,52,14.40
2017,05,27,00,53,14.40
2017,05,27,00,54,14.40
2017,05,27,00,55,14.40
2017,05,27,00,56,14.40
2017,05,27,00,57,14.40
2017,05,27,00,58,14.40
2017,05,27,00,59,14.40
2017,05,27,01,00,14.40
2017,05,27,01,01,14.40
2017,05,27,01,02,14.40
2017,05,27,01,03,14.40
2017,05,27,01,04,14.40
2017,05,27,01,05,14.40
2017,05,27,01,06,14.40
2017,05,27,01,07,14.30
2017,05,27,01,08,14.30
2017,05,27,01,09,14.30
2017,05,27,01,10,14.30
2017,05,27,01,11,14.30
2017,05,27,01,12,14.30
2017,05,27,01,13,14.20
2017,05,27,01,14,14.20
2017,05,27,01,15,14.20
2017,05,27,01,16,14.20
2017,05,27,01,17,14.20
2017,05,27,01,18,14.20
2017,05,27,01,19,14.20
2017,05,27,01,20,14.20
2017,05,27,01,21,14.30
2017,05,27,01,22,14.30
2017,05,27,01,23,14.30
2017,05,27,01,24,14.30
2017,05,27,01,25,14.30
2017,05,27,01,26,14.30
2017,05,27,01,27,14.30
2017,05,27,01,28,14.30
2017,05,27,01,29,14.30
2017,05,27,01,30,14.20
2017,05,27,01,31,14.20
2017,05,27,01,32,14.20
2017,05,27,01,33,14.20
2017,05,27,01,34,14.20
2017,05,27,01,35,14.20
2017,05,27,01,36,14.20
2017,05,27,01,37,14.20
2017,05,27,01,38,14.20
2017,05,27,01,39,14.20
2017,05,27,01,40,14.20
2017,05,27,01,41,14.20
2017,05,27,01,42,14.20
2017,05,27,01,43,14.20
2017,05,27,01,44,14.20
2017,05,27,01,45,14.20
2017,05,27,01,46,14.20
2017,05,27,01,47,14.20
2017,05,27,01,48,14.20
2017,05,27,01,49,14.20
2017,05,27,01,50,14.30
2017,05,27,01,51,14.30
2017,05,27,01,52,14.30
2017,05,27,01,53,14.30
2017,05,27,01,54,14.30
2017,05,27,01,55,14.30
2017,05,27,01,56,14.30
2017,05,27,01,57,14.30
2017,05,27,01,58,14.20
2017,05,27,01,59,14.20
2017,05,27,02,00,14.20
2017,05,27,02,01,14.20
2017,05,27,02,02,14.20
2017,05,27,02,03,14.10
2017,05,27,02,04,14.10
2017,05,27,02,05,14.10
2017,05,27,02,06,14.10
2017,05,27,02,07,14.10
2017,05,27,02,08,14.00
2017,05,27,02,09,14.00
2017,05,27,02,10,14.00
2017,05,27,02,11,14.00
2017,05,27,02,12,13.90
2017,05,27,02,13,13.90
2017,05,27,02,14,13.90
2017,05,27,02,15,13.90
2017,05,27,02,16,13.90
2017,05,27,02,17,13.80
2017,05,27,02,18,13.80
2017,05,27,02,19,13.80
2017,05,27,02,20,13.80
2017,05,27,02,21,13.80
2017,05,27,02,22,13.80
2017,05,27,02,23,13.80
2017,05,27,02,24,13.80
2017,05,27,02,25,13.80
2017,05,27,02,26,13.80
2017,05,27,02,27,13.80
2017,05,27,02,28,13.70
2017,05,27,02,29,13.70
2017,05,27,02,30,13.70
2017,05,27,02,31,13.70
2017,05,27,02,32,13.70
2017,05,27,02,33,13.70
2017,05,27,02,34,13.70
2017,05,27,02,35,13.60
2017,05,27,02,36,13.70
2017,05,27,02,37,13.60
2017,05,27,02,38,13.70
2017,05,27,02,39,13.60
2017,05,27,02,40,13.60
2017,05,27,02,41,13.60
2017,05,27,02,42,13.50
2017,05,27,02,43,13.50
2017,05,27,02,44,13.40
2017,05,27,02,45,13.40
2017,05,27,02,46,13.40
2017,05,27,02,47,13.40
2017,05,27,02,48,13.40
2017,05,27,02,49,13.40
2017,05,27,02,50,13.40
2017,05,27,02,51,13.40
2017,05,27,02,52,13.40
2017,05,27,02,53,13.40
2017,05,27,02,54,13.40
2017,05,27,02,55,13.40
2017,05,27,02,56,13.40
2017,05,27,02,57,13.50
2017,05,27,02,58,13.50
2017,05,27,02,59,13.50
2017,05,27,03,00,13.50
2017,05,27,03,01,13.50
2017,05,27,03,02,13.50
2017,05,27,03,03,13.60
2017,05,27,03,04,13.60
2017,05,27,03,05,13.60
2017,05,27,03,06,13.60
2017,05,27,03,07,13.60
2017,05,27,03,08,13.60
2017,05,27,03,09,13.60
2017,05,27,03,10,13.60
2017,05,27,03,11,13.60
2017,05,27,03,12,13.60
2017,05,27,03,13,13.60
2017,05,27,03,14,13.60
2017,05,27,03,15,13.60
2017,05,27,03,16,13.60
2017,05,27,03,17,13.60
2017,05,27,03,18,13.60
2017,05,27,03,19,13.60
2017,05,27,03,20,13.60
2017,05,27,03,21,13.60
2017,05,27,03,22,13.60
2017,05,27,03,23,13.60
2017,05,27,03,24,13.70
2017,05,27,03,25,13.70
2017,05,27,03,26,13.70
2017,05,27,03,27,13.80
2017,05,27,03,28,13.80
2017,05,27,03,29,13.80
2017,05,27,03,30,13.90
2017,05,27,03,31,13.90
2017,05,27,03,32,13.90
2017,05,27,03,33,13.90
2017,05,27,03,34,13.90
2017,05,27,03,35,14.00
2017,05,27,03,36,14.00
2017,05,27,03,37,14.00
2017,05,27,03,38,14.10
2017,05,27,03,39,14.10
2017,05,27,03,40,14.10
2017,05,27,03,41,14.10
2017,05,27,03,42,14.10
2017,05,27,03,43,14.10
2017,05,27,03,44,14.10
2017,05,27,03,45,14.10
2017,05,27,03,46,14.10
2017,05,27,03,47,14.00
2017,05,27,03,48,14.00
2017,05,27,03,49,14.00
2017,05,27,03,50,14.00
2017,05,27,03,51,14.00
2017,05,27,03,52,14.00
2017,05,27,03,53,14.00
2017,05,27,03,54,14.00
2017,05,27,03,55,13.90
2017,05,27,03,56,13.90
2017,05,27,03,57,13.90
2017,05,27,03,58,13.80
2017,05,27,03,59,13.80
2017,05,27,04,00,13.70
2017,05,27,04,01,13.70
2017,05,27,04,02,13.60
2017,05,27,04,03,13.60
2017,05,27,04,04,13.60
2017,05,27,04,08,13.60
2017,05,27,04,09,13.50
2017,05,27,04,10,13.50
2017,05,27,04,11,13.50
2017,05,27,04,12,13.40
2017,05,27,04,13,13.40
2017,05,27,04,14,13.40
2017,05,27,04,15,13.30
2017,05,27,04,16,13.30
2017,05,27,04,17,13.30
2017,05,27,04,18,13.20
2017,05,27,04,19,13.20
2017,05,27,04,20,13.20
2017,05,27,04,21,13.20
2017,05,27,04,22,13.20
2017,05,27,04,23,13.20
2017,05,27,04,24,13.10
2017,05,27,04,25,13.10
2017,05,27,04,26,13.10
2017,05,27,04,27,13.10
2017,05,27,04,28,13.10
2017,05,27,04,29,13.00
2017,05,27,04,30,13.00
2017,05,27,04,31,13.00
2017,05,27,04,32,12.90
2017,05,27,04,33,12.90
2017,05,27,04,34,12.90
2017,05,27,04,35,12.90
2017,05,27,04,36,12.80
2017,05,27,04,37,12.80
2017,05,27,04,38,12.80
2017,05,27,04,39,12.80
2017,05,27,04,40,12.80
2017,05,27,04,41,12.70
2017,05,27,04,42,12.70
2017,05,27,04,43,12.70
2017,05,27,04,44,12.70
2017,05,27,04,45,12.70
2017,05,27,04,46,12.70
2017,05,27,04,47,12.60
2017,05,27,04,48,12.60
2017,05,27,04,49,12.60
2017,05,27,04,50,12.60
2017,05,27,04,51,12.60
2017,05,27,04,52,12.60
2017,05,27,04,53,12.50
2017,05,27,04,54,12.50
2017,05,27,04,55,12.50
2017,05,27,04,56,12.40
2017,05,27,04,57,12.40
2017,05,27,04,58,12.40
2017,05,27,04,59,12.40
2017,05,27,05,00,12.30
2017,05,27,05,01,12.30
2017,05,27,05,02,12.30
2017,05,27,05,03,12.30
2017,05,27,05,04,12.30
2017,05,27,05,05,12.20
2017,05,27,05,06,12.20
2017,05,27,05,07,12.20
2017,05,27,05,08,12.10
2017,05,27,05,09,12.10
2017,05,27,05,10,12.10
2017,05,27,05,11,12.10
2017,05,27,05,12,12.10
2017,05,27,05,13,12.10
2017,05,27,05,14,12.00
2017,05,27,05,15,12.00
2017,05,27,05,16,12.00
2017,05,27,05,17,12.00
2017,05,27,05,18,12.00
2017,05,27,05,19,12.00
2017,05,27,05,20,12.00
2017,05,27,05,21,12.00
2017,05,27,05,22,12.00
2017,05,27,05,23,12.00
2017,05,27,05,24,12.00
2017,05,27,05,25,12.00
2017,05,27,05,26,12.00
2017,05,27,05,27,12.00
2017,05,27,05,28,11.90
2017,05,27,05,29,11.90
2017,05,27,05,30,11.90
2017,05,27,05,31,11.90
2017,05,27,05,32,11.90
2017,05,27,05,33,11.90
2017,05,27,05,34,11.90
2017,05,27,05,35,11.90
2017,05,27,05,36,11.80
2017,05,27,05,37,11.90
2017,05,27,05,38,11.90
2017,05,27,05,39,11.90
2017,05,27,05,40,11.90
2017,05,27,05,41,11.80
2017,05,27,05,42,11.80
2017,05,27,05,43,11.80
2017,05,27,05,44,11.80
2017,05,27,05,45,11.80
2017,05,27,05,46,11.80
2017,05,27,05,47,11.80
2017,05,27,05,48,11.80
2017,05,27,05,49,11.80
2017,05,27,05,50,11.80
2017,05,27,05,51,11.80
2017,05,27,05,52,11.80
2017,05,27,05,53,11.80
2017,05,27,05,54,11.80
2017,05,27,05,55,11.80
2017,05,27,05,56,11.80
2017,05,27,05,57,11.80
2017,05,27,05,58,11.80
2017,05,27,05,59,11.90
2017,05,27,06,00,11.90
2017,05,27,06,01,11.90
2017,05,27,06,02,11.90
2017,05,27,06,03,11.90
2017,05,27,06,04,11.90
2017,05,27,06,05,11.90
2017,05,27,06,06,11.90
2017,05,27,06,07,11.90
2017,05,27,06,08,11.90
2017,05,27,06,09,11.90
2017,05,27,06,10,11.90
2017,05,27,06,11,12.00
2017,05,27,06,12,12.00
2017,05,27,06,13,12.00
2017,05,27,06,14,12.10
2017,05,27,06,15,12.10
2017,05,27,06,16,12.10
2017,05,27,06,17,12.20
2017,05,27,06,18,12.20
2017,05,27,06,19,12.20
2017,05,27,06,20,12.20
2017,05,27,06,21,12.30
2017,05,27,06,22,12.30
2017,05,27,06,23,12.30
2017,05,27,06,24,12.30
2017,05,27,06,25,12.40
2017,05,27,06,26,12.40
2017,05,27,06,27,12.40
2017,05,27,06,28,12.50
2017,05,27,06,29,12.50
2017,05,27,06,30,12.50
2017,05,27,06,31,12.50
2017,05,27,06,32,12.60
2017,05,27,06,33,12.60
2017,05,27,06,34,12.60
2017,05,27,06,35,12.60
2017,05,27,06,36,12.60
2017,05,27,06,37,12.70
2017,05,27,06,38,12.70
2017,05,27,06,39,12.70
2017,05,27,06,40,12.80
2017,05,27,06,41,12.80
2017,05,27,06,42,12.90
2017,05,27,06,43,12.90
2017,05,27,06,44,13.00
2017,05,27,06,45,13.10
2017,05,27,06,46,13.10
2017,05,27,06,47,13.20
2017,05,27,06,48,13.30
2017,05,27,06,49,13.40
2017,05,27,06,50,13.40
2017,05,27,06,51,13.50
2017,05,27,06,52,13.60
2017,05,27,06,53,13.70
2017,05,27,06,54,13.70
2017,05,27,06,55,13.80
2017,05,27,06,56,13.90
2017,05,27,06,57,13.90
2017,05,27,06,58,14.00
2017,05,27,06,59,14.10
2017,05,27,07,00,14.20
2017,05,27,07,01,14.20
2017,05,27,07,02,14.30
2017,05,27,07,03,14.40
2017,05,27,07,04,14.50
2017,05,27,07,05,14.60
2017,05,27,07,06,14.70
2017,05,27,07,07,14.80
2017,05,27,07,08,14.90
2017,05,27,07,09,14.90
2017,05,27,07,10,15.00
2017,05,27,07,11,15.10
2017,05,27,07,12,15.20
2017,05,27,07,13,15.20
2017,05,27,07,14,15.30
2017,05,27,07,15,15.40
2017,05,27,07,16,15.50
2017,05,27,07,17,15.60
2017,05,27,07,18,15.70
2017,05,27,07,19,15.80
2017,05,27,07,20,15.90
2017,05,27,07,21,16.00
2017,05,27,07,22,16.00
2017,05,27,07,23,16.10
2017,05,27,07,24,16.20
2017,05,27,07,25,16.20
2017,05,27,07,26,16.30
2017,05,27,07,27,16.30
2017,05,27,07,28,16.30
2017,05,27,07,29,16.30
2017,05,27,07,30,16.30
2017,05,27,07,31,16.40
2017,05,27,07,32,16.40
2017,05,27,07,33,16.40
2017,05,27,07,34,16.50
2017,05,27,07,35,16.50
2017,05,27,07,36,16.60
2017,05,27,07,37,16.60
2017,05,27,07,38,16.60
2017,05,27,07,39,16.60
2017,05,27,07,40,16.70
2017,05,27,07,41,16.70
2017,05,27,07,42,16.80
2017,05,27,07,43,16.80
2017,05,27,07,44,16.80
2017,05,27,07,45,16.90
2017,05,27,07,46,17.00
2017,05,27,07,47,17.00
2017,05,27,07,48,17.10
2017,05,27,07,49,17.20
2017,05,27,07,50,17.30
2017,05,27,07,51,17.30
2017,05,27,07,52,17.30
2017,05,27,07,53,17.40
2017,05,27,07,54,17.50
2017,05,27,07,55,17.50
2017,05,27,07,56,17.60
2017,05,27,07,57,17.70
2017,05,27,07,58,17.70
2017,05,27,07,59,17.80
2017,05,27,08,00,17.80
2017,05,27,08,01,17.90
2017,05,27,08,02,17.90
2017,05,27,08,03,18.00
2017,05,27,08,04,18.00
2017,05,27,08,05,18.00
2017,05,27,08,06,18.00
2017,05,27,08,07,18.00
2017,05,27,08,08,18.00
2017,05,27,08,09,18.10
2017,05,27,08,10,18.10
2017,05,27,08,11,18.10
2017,05,27,08,12,18.20
2017,05,27,08,13,18.20
2017,05,27,08,14,18.20
2017,05,27,08,15,18.20
2017,05,27,08,16,18.20
2017,05,27,08,17,18.20
2017,05,27,08,18,18.20
2017,05,27,08,19,18.20
2017,05,27,08,20,18.10
2017,05,27,08,21,18.10
2017,05,27,08,22,18.00
2017,05,27,08,23,18.00
2017,05,27,08,24,18.00
2017,05,27,08,25,17.90
2017,05,27,08,26,18.00
2017,05,27,08,27,18.00
2017,05,27,08,28,18.00
2017,05,27,08,29,18.00
2017,05,27,08,30,17.90
2017,05,27,08,31,17.90
2017,05,27,08,32,17.90
2017,05,27,08,33,17.90
2017,05,27,08,34,17.90
2017,05,27,08,35,17.90
2017,05,27,08,36,17.90
2017,05,27,08,37,17.80
2017,05,27,08,38,17.80
2017,05,27,08,39,17.80
2017,05,27,08,40,17.80
2017,05,27,08,41,17.80
2017,05,27,08,42,17.80
2017,05,27,08,43,17.80
2017,05,27,08,44,17.80
2017,05,27,08,45,17.80
2017,05,27,08,46,17.80
2017,05,27,08,47,17.80
2017,05,27,08,48,17.80
2017,05,27,08,49,17.90
2017,05,27,08,50,17.90
2017,05,27,08,51,18.00
2017,05,27,08,52,18.00
2017,05,27,08,53,18.10
2017,05,27,08,54,18.10
2017,05,27,08,55,18.10
2017,05,27,08,56,18.10
2017,05,27,08,57,18.10
2017,05,27,08,58,18.10
2017,05,27,08,59,18.10
2017,05,27,09,00,18.10
2017,05,27,09,01,18.10
2017,05,27,09,02,18.10
2017,05,27,09,03,18.10
2017,05,27,09,04,18.10
2017,05,27,09,05,18.00
2017,05,27,09,06,18.00
2017,05,27,09,07,18.00
2017,05,27,09,08,17.90
2017,05,27,09,09,17.90
2017,05,27,09,10,18.00
2017,05,27,09,11,18.00
2017,05,27,09,12,18.10
2017,05,27,09,13,18.10
2017,05,27,09,14,18.20
2017,05,27,09,15,18.30
2017,05,27,09,16,18.30
2017,05,27,09,17,18.30
2017,05,27,09,18,18.30
2017,05,27,09,19,18.30
2017,05,27,09,20,18.30
2017,05,27,09,21,18.30
2017,05,27,09,22,18.30
2017,05,27,09,23,18.20
2017,05,27,09,24,18.20
2017,05,27,09,25,18.20
2017,05,27,09,26,18.20
2017,05,27,09,27,18.20
2017,05,27,09,28,18.20
2017,05,27,09,29,18.30
2017,05,27,09,30,18.40
2017,05,27,09,31,18.50
2017,05,27,09,32,18.60
2017,05,27,09,33,18.60
2017,05,27,09,34,18.70
2017,05,27,09,35,18.70
2017,05,27,09,36,18.70
2017,05,27,09,37,18.70
2017,05,27,09,38,18.70
2017,05,27,09,39,18.70
2017,05,27,09,40,18.70
2017,05,27,09,41,18.70
2017,05,27,09,42,18.70
2017,05,27,09,43,18.70
2017,05,27,09,44,18.70
2017,05,27,09,45,18.70
2017,05,27,09,46,18.70
2017,05,27,09,47,18.70
2017,05,27,09,48,18.60
2017,05,27,09,49,18.60
2017,05,27,09,50,18.70
2017,05,27,09,51,18.60
2017,05,27,09,52,18.60
2017,05,27,09,53,18.60
2017,05,27,09,54,18.60
2017,05,27,09,55,18.60
2017,05,27,09,56,18.60
2017,05,27,09,57,18.70
2017,05,27,09,58,18.70
2017,05,27,09,59,18.70
2017,05,27,10,00,18.80
2017,05,27,10,01,18.80
2017,05,27,10,02,18.90
2017,05,27,10,03,18.90
2017,05,27,10,04,18.90
2017,05,27,10,05,18.90
2017,05,27,10,06,18.90
2017,05,27,10,07,18.90
2017,05,27,10,08,18.80
2017,05,27,10,09,18.80
2017,05,27,10,10,18.80
2017,05,27,10,11,18.80
2017,05,27,10,12,18.80
2017,05,27,10,13,18.80
2017,05,27,10,14,18.80
2017,05,27,10,15,18.80
2017,05,27,10,16,18.80
2017,05,27,10,17,18.80
2017,05,27,10,18,18.90
2017,05,27,10,19,18.90
2017,05,27,10,20,19.00
2017,05,27,10,21,19.10
2017,05,27,10,22,19.30
2017,05,27,10,23,19.40
2017,05,27,10,24,19.50
2017,05,27,10,25,19.60
2017,05,27,10,26,19.60
2017,05,27,10,27,19.70
2017,05,27,10,28,19.80
2017,05,27,10,29,19.80
2017,05,27,10,30,19.70
2017,05,27,10,31,19.70
2017,05,27,10,32,19.70
2017,05,27,10,33,19.70
2017,05,27,10,34,19.70
2017,05,27,10,35,19.70
2017,05,27,10,36,19.80
2017,05,27,10,37,19.90
2017,05,27,10,38,20.00
2017,05,27,10,39,20.10
2017,05,27,10,40,20.20
2017,05,27,10,41,20.30
2017,05,27,10,42,20.30
2017,05,27,10,43,20.30
2017,05,27,10,44,20.30
2017,05,27,10,45,20.20
2017,05,27,10,46,20.10
2017,05,27,10,47,20.00
2017,05,27,10,48,19.90
2017,05,27,10,49,19.80
2017,05,27,10,50,19.70
2017,05,27,10,51,19.70
2017,05,27,10,52,19.60
2017,05,27,10,53,19.60
2017,05,27,10,54,19.60
2017,05,27,10,55,19.70
2017,05,27,10,56,19.80
2017,05,27,10,57,19.80
2017,05,27,10,58,19.80
2017,05,27,10,59,19.80
2017,05,27,11,00,19.90
2017,05,27,11,01,19.90
2017,05,27,11,02,19.90
2017,05,27,11,03,19.90
2017,05,27,11,04,20.00
2017,05,27,11,05,20.10
2017,05,27,11,06,20.20
2017,05,27,11,07,20.20
2017,05,27,11,08,20.30
2017,05,27,11,09,20.30
2017,05,27,11,10,20.30
2017,05,27,11,11,20.30
2017,05,27,11,12,20.30
2017,05,27,11,13,20.30
2017,05,27,11,14,20.40
2017,05,27,11,15,20.40
2017,05,27,11,16,20.40
2017,05,27,11,17,20.50
2017,05,27,11,18,20.50
2017,05,27,11,19,20.50
2017,05,27,11,20,20.40
2017,05,27,11,21,20.40
2017,05,27,11,22,20.40
2017,05,27,11,23,20.40
2017,05,27,11,24,20.50
2017,05,27,11,25,20.60
2017,05,27,11,26,20.70
2017,05,27,11,27,20.80
2017,05,27,11,28,21.00
2017,05,27,11,29,21.10
2017,05,27,11,30,21.20
2017,05,27,11,31,21.30
2017,05,27,11,32,21.30
2017,05,27,11,33,21.40
2017,05,27,11,34,21.30
2017,05,27,11,35,21.30
2017,05,27,11,36,21.30
2017,05,27,11,37,21.20
2017,05,27,11,38,21.20
2017,05,27,11,39,21.20
2017,05,27,11,40,21.20
2017,05,27,11,41,21.30
2017,05,27,11,42,21.40
2017,05,27,11,43,21.40
2017,05,27,11,44,21.40
2017,05,27,11,45,21.30
2017,05,27,11,46,21.30
2017,05,27,11,47,21.30
2017,05,27,11,48,21.40
2017,05,27,11,49,21.40
2017,05,27,11,50,21.40
2017,05,27,11,51,21.40
2017,05,27,11,52,21.40
2017,05,27,11,53,21.40
2017,05,27,11,54,21.40
2017,05,27,11,55,21.50
2017,05,27,11,56,21.50
2017,05,27,11,57,21.60
2017,05,27,11,58,21.70
2017,05,27,11,59,21.70
2017,05,27,12,00,21.80
2017,05,27,12,01,22.00
2017,05,27,12,02,22.10
2017,05,27,12,03,22.10
2017,05,27,12,04,22.20
2017,05,27,12,05,22.30
2017,05,27,12,06,22.40
2017,05,27,12,07,22.50
2017,05,27,12,08,22.50
2017,05,27,12,09,22.60
2017,05,27,12,10,22.70
2017,05,27,12,11,22.70
2017,05,27,12,12,22.80
2017,05,27,12,13,22.80
2017,05,27,12,14,22.80
2017,05,27,12,15,22.90
2017,05,27,12,16,22.90
2017,05,27,12,17,23.00
2017,05,27,12,18,23.00
2017,05,27,12,19,23.10
2017,05,27,12,20,23.10
2017,05,27,12,21,23.10
2017,05,27,12,22,23.00
2017,05,27,12,23,22.80
2017,05,27,12,24,22.60
2017,05,27,12,25,22.50
2017,05,27,12,26,22.40
2017,05,27,12,27,22.30
2017,05,27,12,28,22.10
2017,05,27,12,29,22.00
2017,05,27,12,30,21.90
2017,05,27,12,31,21.80
2017,05,27,12,32,21.70
2017,05,27,12,33,21.70
2017,05,27,12,34,21.70
2017,05,27,12,35,21.80
2017,05,27,12,36,21.90
2017,05,27,12,37,22.00
2017,05,27,12,38,22.00
2017,05,27,12,39,21.90
2017,05,27,12,40,22.00
2017,05,27,12,41,22.00
2017,05,27,12,42,22.10
2017,05,27,12,43,22.10
2017,05,27,12,44,22.20
2017,05,27,12,45,22.20
2017,05,27,12,46,22.30
2017,05,27,12,47,22.30
2017,05,27,12,48,22.30
2017,05,27,12,49,22.30
2017,05,27,12,50,22.30
2017,05,27,12,51,22.30
2017,05,27,12,52,22.40
2017,05,27,12,53,22.40
2017,05,27,12,54,22.40
2017,05,27,12,55,22.30
2017,05,27,12,56,22.20
2017,05,27,12,57,22.20
2017,05,27,12,58,22.10
2017,05,27,12,59,22.00
2017,05,27,13,00,22.00
2017,05,27,13,01,22.10
2017,05,27,13,02,22.20
2017,05,27,13,03,22.40
2017,05,27,13,04,22.50
2017,05,27,13,05,22.70
2017,05,27,13,06,22.80
2017,05,27,13,07,22.90
2017,05,27,13,08,22.80
2017,05,27,13,09,22.80
2017,05,27,13,10,22.70
2017,05,27,13,11,22.70
2017,05,27,13,12,22.70
2017,05,27,13,13,22.80
2017,05,27,13,14,22.80
2017,05,27,13,15,22.90
2017,05,27,13,16,22.90
2017,05,27,13,17,22.90
2017,05,27,13,18,23.00
2017,05,27,13,19,23.10
2017,05,27,13,20,23.20
2017,05,27,13,21,23.30
2017,05,27,13,22,23.40
2017,05,27,13,23,23.40
2017,05,27,13,24,23.50
2017,05,27,13,25,23.70
2017,05,27,13,26,23.80
2017,05,27,13,27,23.90
2017,05,27,13,28,24.00
2017,05,27,13,29,24.20
2017,05,27,13,30,24.20
2017,05,27,13,31,24.20
2017,05,27,13,32,24.20
2017,05,27,13,33,24.20
2017,05,27,13,34,24.30
2017,05,27,13,35,24.30
2017,05,27,13,36,24.40
2017,05,27,13,37,24.50
2017,05,27,13,38,24.60
2017,05,27,13,39,24.60
2017,05,27,13,40,24.70
2017,05,27,13,41,24.70
2017,05,27,13,42,24.70
2017,05,27,13,43,24.70
2017,05,27,13,44,24.70
2017,05,27,13,45,24.70
2017,05,27,13,46,24.70
2017,05,27,13,47,24.70
2017,05,27,13,48,24.70
2017,05,27,13,49,24.70
2017,05,27,13,50,24.70
2017,05,27,13,51,24.70
2017,05,27,13,52,24.80
2017,05,27,13,53,24.90
2017,05,27,13,54,24.90
2017,05,27,13,55,24.90
2017,05,27,13,56,24.90
2017,05,27,13,57,24.80
2017,05,27,13,58,24.80
2017,05,27,13,59,24.70
2017,05,27,14,00,24.60
2017,05,27,14,01,24.50
2017,05,27,14,02,24.40
2017,05,27,14,03,24.30
2017,05,27,14,04,24.10
2017,05,27,14,05,23.90
2017,05,27,14,06,23.80
2017,05,27,14,07,23.60
2017,05,27,14,08,23.50
2017,05,27,14,09,23.40
2017,05,27,14,10,23.30
2017,05,27,14,11,23.30
2017,05,27,14,12,23.20
2017,05,27,14,13,23.20
2017,05,27,14,14,23.10
2017,05,27,14,15,23.10
2017,05,27,14,16,23.00
2017,05,27,14,17,23.00
2017,05,27,14,18,23.00
2017,05,27,14,19,23.10
2017,05,27,14,20,23.20
2017,05,27,14,21,23.30
2017,05,27,14,22,23.30
2017,05,27,14,23,23.40
2017,05,27,14,24,23.40
2017,05,27,14,25,23.50
2017,05,27,14,26,23.50
2017,05,27,14,27,23.60
2017,05,27,14,28,23.60
2017,05,27,14,29,23.60
2017,05,27,14,30,23.60
2017,05,27,14,31,23.50
2017,05,27,14,32,23.50
2017,05,27,14,33,23.60
2017,05,27,14,34,23.60
2017,05,27,14,35,23.70
2017,05,27,14,36,23.80
2017,05,27,14,37,23.90
2017,05,27,14,38,23.90
2017,05,27,14,39,23.90
2017,05,27,14,40,23.90
2017,05,27,14,41,23.80
2017,05,27,14,42,23.80
2017,05,27,14,43,23.80
2017,05,27,14,44,23.70
2017,05,27,14,45,23.70
2017,05,27,14,46,23.60
2017,05,27,14,47,23.60
2017,05,27,14,48,23.60
2017,05,27,14,49,23.60
2017,05,27,14,50,23.60
2017,05,27,14,51,23.50
2017,05,27,14,52,23.50
2017,05,27,14,53,23.40
2017,05,27,14,54,23.40
2017,05,27,14,55,23.40
2017,05,27,14,56,23.40
2017,05,27,14,57,23.40
2017,05,27,14,58,23.40
2017,05,27,14,59,23.40
2017,05,27,15,00,23.40
2017,05,27,15,01,23.40
2017,05,27,15,02,23.40
2017,05,27,15,03,23.40
2017,05,27,15,04,23.40
2017,05,27,15,05,23.40
2017,05,27,15,06,23.40
2017,05,27,15,07,23.40
2017,05,27,15,08,23.40
2017,05,27,15,09,23.40
2017,05,27,15,10,23.40
2017,05,27,15,11,23.40
2017,05,27,15,12,23.40
2017,05,27,15,13,23.40
2017,05,27,15,14,23.40
2017,05,27,15,15,23.50
2017,05,27,15,16,23.50
2017,05,27,15,17,23.60
2017,05,27,15,18,23.60
2017,05,27,15,19,23.60
2017,05,27,15,20,23.70
2017,05,27,15,21,23.70
2017,05,27,15,22,23.70
2017,05,27,15,23,23.70
2017,05,27,15,24,23.70
2017,05,27,15,25,23.70
2017,05,27,15,26,23.80
2017,05,27,15,27,23.80
2017,05,27,15,28,23.80
2017,05,27,15,29,23.80
2017,05,27,15,30,23.90
2017,05,27,15,31,23.80
2017,05,27,15,32,23.80
2017,05,27,15,33,23.80
2017,05,27,15,34,23.80
2017,05,27,15,35,23.80
2017,05,27,15,36,23.80
2017,05,27,15,37,23.80
2017,05,27,15,38,23.90
2017,05,27,15,39,23.90
2017,05,27,15,40,23.90
2017,05,27,15,41,23.90
2017,05,27,15,42,23.90
2017,05,27,15,43,23.90
2017,05,27,15,44,23.80
2017,05,27,15,45,23.80
2017,05,27,15,46,23.80
2017,05,27,15,47,23.80
2017,05,27,15,48,23.80
2017,05,27,15,49,23.80
2017,05,27,15,50,23.80
2017,05,27,15,51,23.80
2017,05,27,15,52,23.80
2017,05,27,15,53,23.80
2017,05,27,15,54,23.80
2017,05,27,15,55,23.70
2017,05,27,15,56,23.70
2017,05,27,15,57,23.80
2017,05,27,15,58,23.80
2017,05,27,15,59,23.80
2017,05,27,16,00,23.80
2017,05,27,16,01,23.80
2017,05,27,16,02,23.90
2017,05,27,16,03,23.90
2017,05,27,16,04,23.90
2017,05,27,16,05,23.90
2017,05,27,16,06,23.90
2017,05,27,16,07,23.90
2017,05,27,16,08,23.90
2017,05,27,16,09,23.90
2017,05,27,16,10,23.90
2017,05,27,16,11,24.00
2017,05,27,16,12,24.00
2017,05,27,16,13,24.00
2017,05,27,16,14,24.10
2017,05,27,16,15,24.10
2017,05,27,16,16,24.10
2017,05,27,16,17,24.10
2017,05,27,16,18,24.20
2017,05,27,16,19,24.10
2017,05,27,16,20,24.10
2017,05,27,16,21,24.10
2017,05,27,16,22,24.10
2017,05,27,16,23,24.10
2017,05,27,16,24,24.10
2017,05,27,16,25,24.20
2017,05,27,16,26,24.20
2017,05,27,16,27,24.20
2017,05,27,16,28,24.20
2017,05,27,16,29,24.30
2017,05,27,16,30,24.30
2017,05,27,16,31,24.30
2017,05,27,16,32,24.40
2017,05,27,16,33,24.50
2017,05,27,16,34,24.50
2017,05,27,16,35,24.60
2017,05,27,16,36,24.60
2017,05,27,16,37,24.70
2017,05,27,16,38,24.70
2017,05,27,16,39,24.80
2017,05,27,16,40,24.90
2017,05,27,16,41,24.90
2017,05,27,16,42,25.00
2017,05,27,16,43,25.10
2017,05,27,16,44,25.20
2017,05,27,16,45,25.30
2017,05,27,16,46,25.50
2017,05,27,16,47,25.60
2017,05,27,16,48,25.70
2017,05,27,16,49,25.80
2017,05,27,16,50,25.80
2017,05,27,16,51,25.90
2017,05,27,16,52,25.90
2017,05,27,16,53,25.80
2017,05,27,16,54,25.80
2017,05,27,16,55,25.70
2017,05,27,16,56,25.70
2017,05,27,16,57,25.60
2017,05,27,16,58,25.50
2017,05,27,16,59,25.50
2017,05,27,17,00,25.40
2017,05,27,17,01,25.40
2017,05,27,17,02,25.40
2017,05,27,17,03,25.30
2017,05,27,17,04,25.30
2017,05,27,17,05,25.30
2017,05,27,17,06,25.20
2017,05,27,17,07,25.20
2017,05,27,17,08,25.20
2017,05,27,17,09,25.20
2017,05,27,17,10,25.20
2017,05,27,17,11,25.20
2017,05,27,17,12,25.20
2017,05,27,17,13,25.20
2017,05,27,17,14,25.20
2017,05,27,17,15,25.20
2017,05,27,17,16,25.20
2017,05,27,17,17,25.20
2017,05,27,17,18,25.20
2017,05,27,17,19,25.30
2017,05,27,17,20,25.30
2017,05,27,17,21,25.40
2017,05,27,17,22,25.40